Theta_e
337 338 336 337 335 334 330 329 328 326 325 324 323 323 323 324 324 326 328 333 337 339 340 338 334 327 329 332 332 332 338 341 338 332 331 338 338 339 337 338 338 343 339
337 339 337 338 335 334 332 329 329 328 327 325 324 323 322 322 323 324 325 326 330 326 334 337 338 338 333 330 330 331 335 337 340 337 335 331 335 341 340 337 334 342 341
339 339 339 338 334 334 330 329 329 328 328 328 328 328 327 325 323 323 323 323 325 326 324 329 333 335 334 332 327 325 327 329 331 336 337 338 337 335 340 341 336 338 336
337 335 336 334 334 330 328 324 321 320 319 319 320 320 321 323 325 326 327 326 325 324 323 323 323 325 325 327 328 327 326 325 328 331 336 335 335 337 339 339 339 336 336
335 336 335 334 331 326 320 320 320 319 318 316 316 317 317 317 316 315 315 315 317 319 322 325 326 323 322 326 328 329 328 327 328 330 332 331 333 335 337 335 338 337 335
335 335 334 330 325 322 322 321 319 318 317 316 314 313 313 312 312 312 313 314 314 314 314 313 314 317 323 324 322 326 329 330 329 329 331 333 338 335 334 335 336 338 336
335 334 331 323 322 322 321 319 318 318 318 318 316 315 313 312 312 313 314 314 314 314 314 313 312 311 311 313 321 323 322 327 330 330 331 334 338 340 338 338 334 335 336
334 330 325 323 322 321 320 318 317 318 318 318 317 316 316 317 318 318 318 318 317 316 315 315 314 312 311 310 310 311 319 323 323 328 330 331 336 338 339 339 338 335 333
329 325 324 323 321 319 319 318 317 318 318 318 317 316 315 315 314 314 315 315 316 315 315 315 316 315 315 314 312 311 310 312 320 322 324 329 331 337 338 339 338 338 335
324 324 324 320 319 319 318 316 316 317 318 318 317 317 317 317 316 315 315 315 314 315 315 315 315 316 316 316 316 315 314 312 310 313 322 322 327 330 334 338 338 337 337
325 325 322 320 319 318 317 316 315 317 318 317 317 318 318 318 317 317 317 315 314 314 316 316 316 316 315 315 315 315 315 315 315 313 312 319 323 324 328 333 337 337 334
327 327 324 322 321 318 317 318 317 318 318 317 316 316 317 317 318 318 318 315 312 313 315 316 316 316 315 316 317 315 317 317 316 316 316 313 321 324 322 325 330 335 334
328 328 326 323 322 319 321 320 320 319 320 318 317 316 316 317 318 318 318 316 313 313 316 317 316 316 315 314 315 317 317 317 318 318 317 318 323 326 326 323 323 327 332
329 328 327 323 321 319 320 321 321 320 320 319 319 318 317 317 318 318 318 316 316 316 315 315 315 316 315 314 316 317 317 317 317 317 318 318 320 325 327 327 325 324 328
331 327 324 323 321 321 322 321 322 322 322 321 320 319 318 318 318 318 316 317 317 317 315 315 316 316 315 313 315 316 316 316 315 315 316 316 318 320 323 325 327 325 324
331 326 324 323 323 322 321 322 323 323 322 323 321 320 321 319 319 318 318 317 317 317 316 315 314 316 316 315 315 315 314 315 315 313 315 313 315 318 319 321 324 327 328
329 326 325 323 323 323 322 322 323 323 324 323 324 323 322 322 319 318 319 318 318 317 316 315 315 314 315 316 315 315 315 315 315 315 314 314 315 314 316 318 320 323 326
328 326 325 323 322 323 322 321 322 322 324 325 326 325 325 323 320 319 317 318 319 318 317 316 316 316 316 316 316 316 316 315 316 314 314 316 316 314 315 314 317 319 320
327 326 324 324 324 325 323 320 321 321 322 324 326 326 324 324 323 319 318 317 318 318 317 316 315 316 316 317 317 316 315 315 316 314 314 315 315 314 316 316 315 316 318
329 329 329 329 328 326 324 324 322 322 325 326 325 324 322 324 324 321 320 318 318 319 318 317 316 317 316 317 316 316 315 315 314 313 314 315 315 316 315 316 316 316 315
331 330 328 329 328 328 327 326 326 326 324 321 322 320 319 323 320 319 319 321 319 318 318 317 317 317 318 318 316 316 315 315 313 313 314 315 316 316 316 317 317 317 316
328 328 327 328 328 328 325 325 324 321 320 321 317 317 318 321 321 319 320 320 319 319 319 318 318 318 318 317 316 316 316 316 316 315 315 314 315 316 315 315 316 316 317
329 328 329 329 329 327 323 321 319 318 315 310 312 312 313 314 315 315 314 317 320 320 319 318 318 316 317 317 315 316 316 317 316 316 315 314 314 314 314 314 314 314 315
332 331 329 329 326 323 319 316 314 312 312 312 312 311 312 312 312 312 311 310 314 320 319 318 317 316 314 317 317 314 315 315 316 317 317 316 315 313 314 314 313 314 314
331 330 328 326 323 317 313 312 312 312 312 312 312 311 311 311 311 310 311 310 310 315 319 318 316 316 315 314 316 316 315 315 314 316 316 316 316 317 317 315 315 314 313
330 328 323 324 316 313 312 313 313 313 313 312 312 311 310 311 310 310 310 310 311 315 318 317 316 316 314 314 313 314 315 315 316 315 315 315 316 317 317 317 317 316 313
Wind_Speed
14 11 9 7 9 8 9 8 6 5 4 3 3 3 2 1 1 2 2 1 2 3 4 4 4 3 2 3 2 3 0 2 1 1 0 2 3 3 2 3 4 5 6
15 11 10 8 7 5 6 6 5 6 5 4 4 3 2 2 1 1 1 1 0 3 2 1 2 4 5 5 5 5 3 1 2 1 2 3 5 3 2 3 3 6 6
14 12 12 7 5 4 6 7 7 7 6 6 5 4 3 3 3 2 2 4 4 5 5 3 3 3 6 6 6 7 7 5 4 5 5 3 4 6 4 4 4 5 7
14 12 9 5 4 4 6 6 6 6 5 4 3 3 3 4 4 4 4 5 5 6 7 8 7 9 8 9 8 8 7 7 7 7 8 7 8 8 7 6 5 6 6
13 10 6 5 4 5 6 6 5 4 4 4 4 4 4 5 5 6 6 7 8 8 9 10 10 9 9 10 10 11 11 10 10 9 10 10 9 11 9 8 8 7 7
11 8 7 5 5 5 5 6 7 6 5 5 5 6 7 6 7 6 6 7 8 9 10 11 12 12 12 12 12 13 13 13 13 12 12 12 11 13 12 10 10 9 9
12 10 7 6 5 4 4 6 7 7 7 7 6 6 7 6 6 6 6 8 8 8 9 9 10 10 12 13 14 15 15 15 15 15 14 15 15 14 13 11 13 11 11
12 10 8 5 3 2 4 6 7 7 8 9 9 8 7 6 5 6 7 8 9 10 9 8 8 8 10 11 13 14 16 17 17 18 17 17 18 19 17 15 14 13 14
11 10 7 4 2 3 4 5 5 6 9 10 11 10 8 9 8 8 8 9 9 10 10 9 9 8 8 9 10 12 14 17 16 19 19 19 20 22 22 19 18 17 15
12 9 6 3 2 2 4 6 6 8 9 9 10 10 9 10 11 10 10 11 11 9 9 8 8 9 8 8 9 10 12 14 15 18 19 19 20 22 24 23 21 17 19
12 9 6 3 2 3 5 7 6 7 9 9 10 9 10 10 11 11 14 14 13 11 10 9 11 11 12 12 12 13 13 13 13 14 16 18 19 21 23 26 25 22 20
13 9 6 4 1 2 2 5 7 6 8 9 11 9 9 9 11 12 15 16 13 10 9 10 13 14 13 11 10 11 9 11 10 12 11 16 18 19 22 24 27 27 22
11 9 8 6 4 2 4 6 9 8 9 8 12 12 10 9 10 13 15 13 13 9 9 10 13 14 15 14 10 8 9 9 9 9 11 13 15 16 19 21 23 25 24
13 10 11 9 7 3 4 6 9 10 10 9 12 11 10 11 11 13 14 10 11 13 11 13 14 15 14 14 11 11 10 11 11 11 11 13 15 15 16 17 20 23 23
14 12 12 11 9 6 8 10 11 12 11 11 11 12 13 14 12 11 9 10 13 15 14 13 14 15 15 14 13 13 14 16 18 17 18 17 16 16 16 15 14 18 22
13 12 14 13 11 10 11 12 13 14 13 13 12 13 14 15 16 14 12 12 13 15 16 16 14 14 13 13 13 17 19 18 17 19 18 22 21 19 17 18 17 15 17
11 14 14 16 15 16 15 15 15 15 17 17 18 18 16 17 17 16 16 15 15 16 17 16 14 14 13 12 14 16 17 17 16 16 16 16 19 22 23 20 21 20 19
15 16 18 20 19 19 18 18 18 18 19 19 18 20 21 19 18 16 16 17 17 18 19 17 16 13 12 13 16 16 16 16 15 17 17 15 14 17 18 21 23 23 22
17 18 19 20 20 19 20 20 21 21 23 21 19 21 20 22 21 16 16 15 16 18 18 17 17 17 16 16 16 16 16 15 15 16 15 15 15 16 17 18 21 25 24
19 19 18 19 18 18 19 20 22 22 20 19 21 21 22 20 20 19 20 18 15 17 18 17 18 19 21 18 18 18 16 14 16 15 13 12 11 11 17 19 20 21 23
19 19 15 15 12 14 16 18 18 19 20 18 18 20 21 18 15 17 20 21 20 20 19 19 18 21 17 16 18 16 15 12 9 10 8 10 11 10 10 17 18 20 20
15 15 13 11 10 12 14 15 14 16 17 17 17 19 19 17 16 17 20 22 23 24 23 22 20 19 18 18 15 15 12 10 4 10 10 9 11 11 10 12 15 19 21
17 15 12 12 13 13 11 12 12 13 14 16 18 19 17 16 15 18 20 22 26 28 26 25 22 20 17 15 17 12 9 7 10 8 3 11 12 13 15 14 15 16 20
17 18 13 13 11 9 9 10 11 10 11 15 18 18 19 20 22 23 23 24 24 25 26 25 23 21 19 17 14 18 16 14 9 10 7 9 14 15 16 17 18 21 23
14 11 11 9 8 7 7 9 10 12 14 16 16 18 20 23 25 22 23 23 24 26 24 23 23 21 18 18 19 16 16 15 15 15 16 13 16 13 12 14 18 20 23
9 6 8 9 7 10 10 11 13 15 16 18 17 19 20 23 26 26 24 24 21 21 24 26 22 23 19 19 20 19 18 16 11 13 16 17 19 16 14 16 14 14 14
Wind_Direction
155 145 125 101 86 77 70 72 76 71 70 75 79 89 100 107 118 143 133 115 126 82 45 28 357 303 275 261 246 246 272 62 36 63 145 138 124 132 145 147 156 152 157
155 146 129 120 97 73 59 58 57 65 69 68 59 48 53 55 40 272 252 252 200 235 141 85 338 314 284 273 259 251 248 205 163 143 242 208 175 171 165 179 188 175 170
155 144 141 140 84 56 56 59 55 55 46 36 30 27 20 358 338 337 311 297 296 292 279 267 233 274 263 275 273 272 267 266 224 205 217 210 194 192 194 181 194 185 183
155 150 145 126 91 72 64 58 48 45 42 27 15 359 345 329 317 306 295 285 283 291 297 295 298 298 295 279 269 262 262 261 250 237 236 218 206 208 206 210 215 205 200
154 150 144 136 110 86 66 49 38 21 359 336 320 306 300 298 298 297 297 293 293 290 284 281 279 280 280 272 274 271 265 259 253 243 244 242 225 223 221 218 221 209 210
163 158 147 126 99 81 55 34 27 20 9 343 323 313 305 302 301 295 292 292 296 299 297 291 282 274 271 269 269 267 266 261 259 255 246 243 238 231 223 224 223 222 215
156 151 144 132 111 84 50 35 32 31 31 29 7 345 333 333 318 308 303 303 304 304 301 301 296 289 278 267 263 262 261 261 261 258 251 241 238 238 230 228 225 224 223
156 155 150 134 121 68 28 24 27 27 34 29 20 11 10 5 342 322 314 314 313 310 308 306 302 301 299 290 278 268 262 257 255 254 250 248 240 247 245 239 233 228 227
161 160 149 138 105 45 24 26 26 15 18 15 15 19 18 6 352 335 319 314 311 314 318 320 316 319 312 302 290 286 274 267 261 259 250 247 244 244 247 244 238 235 231
166 159 152 130 111 40 17 16 12 11 5 360 3 7 10 13 6 1 352 338 329 326 325 319 312 311 315 314 307 300 294 285 275 267 260 253 245 244 245 247 241 239 233
175 172 161 124 59 15 17 3 3 3 0 357 355 355 355 354 360 4 354 338 323 317 314 309 307 306 307 305 302 299 301 297 291 280 270 257 249 244 244 244 246 244 241
189 183 187 181 231 320 9 3 357 359 356 355 357 352 350 350 351 352 352 352 336 321 309 303 301 305 313 321 316 308 309 304 297 282 278 262 257 250 247 245 243 245 244
199 208 209 224 231 241 341 343 338 343 341 350 0 359 352 345 340 342 345 354 6 337 320 308 304 306 313 316 312 307 304 303 300 293 271 259 251 250 252 250 247 245 242
216 227 227 233 233 259 299 310 332 330 335 340 347 351 350 343 338 337 336 349 359 2 342 315 306 304 312 311 296 292 296 294 290 285 277 259 253 249 250 250 244 241 238
233 229 228 237 240 249 291 305 321 321 321 330 335 339 342 339 333 330 338 340 343 343 338 324 302 300 306 306 290 289 290 289 284 279 272 261 254 254 250 250 246 240 241
242 233 234 241 249 268 282 295 307 314 309 317 319 321 328 327 329 311 310 313 321 323 325 325 317 298 301 305 293 291 295 298 292 280 272 264 257 252 251 251 250 243 241
250 249 250 252 258 261 272 285 291 305 306 309 314 311 311 313 316 311 294 300 304 309 315 310 317 313 300 301 300 298 297 295 291 283 274 269 258 255 251 249 248 248 243
245 250 251 250 257 266 277 283 288 303 306 305 315 313 303 301 300 304 294 291 296 299 311 305 304 307 297 299 305 302 293 290 283 281 272 270 264 255 254 249 246 246 245
251 253 248 254 266 276 280 284 289 297 306 301 303 312 304 292 295 290 295 293 285 285 299 303 298 302 296 299 305 306 299 289 285 282 273 266 269 260 247 246 245 246 247
252 257 260 261 269 276 281 287 289 297 304 304 303 307 311 293 285 283 289 293 284 281 288 295 293 296 297 294 301 302 298 290 286 282 266 257 263 268 242 244 242 246 249
244 245 252 258 267 277 285 285 292 296 303 306 308 308 309 293 285 286 286 285 282 278 281 285 287 296 290 292 304 304 303 297 282 263 261 253 248 253 251 242 241 243 248
241 239 240 256 263 268 280 287 291 301 308 310 313 315 315 306 281 287 291 284 276 273 275 277 281 288 284 285 290 298 309 308 293 222 282 260 246 245 254 252 253 250 253
241 238 248 251 256 268 284 290 300 311 321 327 324 324 326 323 315 304 302 292 278 272 265 271 274 280 273 272 284 272 291 285 303 275 254 245 265 257 266 268 266 262 258
246 240 249 249 265 262 282 296 303 304 326 339 344 333 327 322 318 311 307 303 289 276 266 262 271 268 268 268 270 272 269 267 275 289 280 283 278 284 279 272 278 272 266
239 237 255 260 259 284 296 304 302 308 304 315 332 331 320 323 326 314 308 309 294 280 265 263 264 260 267 276 269 260 269 262 262 266 283 291 294 294 292 289 287 284 279
216 220 282 256 303 308 307 304 300 293 293 303 314 320 316 318 320 319 316 307 308 293 277 262 254 258 262 265 265 262 263 259 254 269 281 295 295 299 298 294 292 282 275